FW9940 Weather Reports


time (UTC)temp
C
wind
direction
speed
KPH
gust
KPH
rain 1hr
cm
rain 24hr
cm
rain mn
cm
humidity
%
barometer
mb
20260503180007 16 276 6.4 6.4 0.00 0.00 0.00 43 1009.8
20260503175007 15 282 6.4 6.4 0.00 0.00 0.00 45 1009.8
20260503174007 16 240 6.4 6.4 0.00 0.00 0.00 43 1009.8
20260503173007 16 283 4.8 4.8 0.00 0.00 0.00 44 1010.2
20260503172507 16 257 4.8 4.8 0.00 0.00 0.00 44 1010.2
20260503171507 15 240 4.8 4.8 0.00 0.00 0.00 44 1010.2
20260503170508 16 285 6.4 6.4 0.00 0.00 0.00 43 1010.2
20260503151007 14 234 3.2 3.2 0.00 0.00 0.00 45 1011.2
20260503130508 7 237 3.2 3.2 0.00 0.00 0.00 56 1012.2
20260503090508 1 210 1.6 1.6 0.00 0.00 0.00 75 1013.5
20260503081009 2 214 1.6 1.6 0.00 0.00 0.00 71 1013.5
20260503072508 2 220 1.6 1.6 0.00 0.00 0.00 69 1013.5
20260503071508 2 224 1.6 1.6 0.00 0.00 0.00 68 1013.5
20260503071008 2 232 1.6 1.6 0.00 0.00 0.00 68 1013.5
20260503053008 3 203 1.6 1.6 0.00 0.00 0.00 67 1014.2
20260503052508 3 201 1.6 1.6 0.00 0.00 0.00 67 1014.2
20260503051509 3 202 1.6 1.6 0.00 0.00 0.00 68 1014.6
20260503051009 3 218 1.6 1.6 0.00 0.00 0.00 68 1014.6
20260503050009 3 211 1.6 1.6 0.00 0.00 0.00 68 1014.6
20260503045509 3 199 1.6 1.6 0.00 0.00 0.00 69 1014.6
20260503044509 3 199 1.6 1.6 0.00 0.00 0.00 69 1014.6
20260503044008 3 204 1.6 1.6 0.00 0.00 0.00 69 1014.6
20260503043008 3 200 1.6 1.6 0.00 0.00 0.00 69 1014.6
20260503042009 3 197 1.6 1.6 0.00 0.00 0.00 68 1014.6
20260503041009 3 213 0.0 0.0 0.00 0.00 0.00 69 1014.6
20260503040010 3 218 0.0 0.0 0.00 0.00 0.00 69 1014.9
20260503035509 3 216 0.0 0.0 0.00 0.00 0.00 69 1014.9
20260503035008 3 218 1.6 1.6 0.00 0.00 0.00 69 1014.9
20260503034008 3 206 1.6 1.6 0.00 0.00 0.00 68 1014.9
20260503033009 4 210 1.6 1.6 0.00 0.00 0.00 67 1014.9
20260503032009 4 195 1.6 1.6 0.00 0.00 0.00 66 1014.9
20260503031509 4 194 1.6 1.6 0.00 0.00 0.00 65 1014.9
20260503030508 4 176 1.6 1.6 0.00 0.00 0.00 66 1014.9
20260503025509 4 184 1.6 1.6 0.00 0.00 0.00 68 1015.2
20260503025009 4 190 1.6 1.6 0.00 0.00 0.00 67 1015.2
20260503024509 4 203 1.6 1.6 0.00 0.00 0.00 66 1015.2
20260503024009 4 191 1.6 1.6 0.00 0.00 0.00 66 1015.2
20260503023009 5 185 1.6 1.6 0.00 0.00 0.00 65 1015.2
20260503022008 5 181 1.6 1.6 0.00 0.00 0.00 65 1015.2
20260503020010 5 184 1.6 1.6 0.00 0.00 0.00 64 1015.2
20260503015009 5 189 1.6 1.6 0.00 0.00 0.00 63 1015.2
20260503014010 5 183 1.6 1.6 0.00 0.00 0.00 62 1015.2
20260503013009 5 172 1.6 1.6 0.00 0.00 0.00 62 1015.2
20260503012009 5 169 1.6 1.6 0.00 0.00 0.00 61 1015.2
20260503011510 5 165 1.6 1.6 0.00 0.00 0.00 61 1015.2
20260503011009 5 157 1.6 1.6 0.00 0.00 0.00 60 1015.2
20260503010009 6 155 1.6 1.6 0.00 0.00 0.00 59 1015.2
20260503005009 6 147 1.6 1.6 0.00 0.00 0.00 58 1015.2
20260503004009 6 146 1.6 1.6 0.00 0.00 0.00 58 1015.2
20260503003009 6 145 1.6 1.6 0.00 0.00 0.00 58 1015.2
20260503002009 7 153 1.6 1.6 0.00 0.00 0.00 56 1015.2
20260503001009 7 152 1.6 1.6 0.00 0.00 0.00 54 1015.2
20260503000009 7 163 1.6 1.6 0.00 0.00 0.00 54 1015.2
20260502235010 7 137 1.6 1.6 0.00 0.00 0.00 55 1015.2
20260502234510 7 156 1.6 1.6 0.00 0.00 0.00 55 1015.2
20260502233509 7 115 1.6 1.6 0.00 0.00 0.00 57 1015.2
20260502232509 7 127 1.6 1.6 0.00 0.00 0.00 57 1015.6
20260502232010 7 111 1.6 1.6 0.00 0.00 0.00 56 1015.6
20260502231509 7 75 1.6 1.6 0.00 0.00 0.00 56 1015.6
20260502230509 7 46 1.6 1.6 0.00 0.00 0.00 56 1015.6
20260502225510 7 101 1.6 1.6 0.00 0.00 0.00 56 1015.6
20260502225010 7 63 1.6 1.6 0.00 0.00 0.00 55 1015.6
20260502224509 7 63 3.2 3.2 0.00 0.00 0.00 55 1015.6
20260502223509 6 49 1.6 1.6 0.00 0.00 0.00 58 1015.6
20260502222509 6 97 1.6 1.6 0.00 0.00 0.00 58 1015.6
20260502221510 6 94 1.6 1.6 0.00 0.00 0.00 58 1015.9
20260502221010 6 58 3.2 3.2 0.00 0.00 0.00 57 1015.9
20260502220009 6 70 3.2 3.2 0.00 0.00 0.00 57 1015.9
20260502215509 6 81 3.2 3.2 0.00 0.00 0.00 56 1015.9
20260502214509 6 59 3.2 3.2 0.00 0.00 0.00 57 1015.9
20260502214010 6 56 3.2 3.2 0.00 0.00 0.00 58 1015.9
20260502213509 6 71 3.2 3.2 0.00 0.00 0.00 59 1015.9
20260502212510 6 45 3.2 3.2 0.00 0.00 0.00 60 1015.9
20260502211509 6 48 3.2 3.2 0.00 0.00 0.00 61 1015.9
20260502210510 6 48 3.2 3.2 0.00 0.00 0.00 61 1015.9
20260502210009 6 62 3.2 3.2 0.00 0.00 0.00 62 1015.9
20260502205010 6 80 3.2 3.2 0.00 0.00 0.00 61 1015.9
20260502204009 6 67 3.2 3.2 0.00 0.00 0.00 63 1016.3
20260502203009 6 42 3.2 3.2 0.00 0.00 0.00 63 1016.3
20260502202010 6 54 3.2 3.2 0.00 0.00 0.00 63 1016.3
20260502201510 6 47 3.2 3.2 0.00 0.00 0.00 63 1016.3
20260502200510 6 40 3.2 3.2 0.00 0.00 0.00 62 1016.3
20260502200010 6 64 3.2 3.2 0.00 0.00 0.00 63 1016.3
20260502195010 6 61 3.2 3.2 0.00 0.00 0.00 62 1016.6
20260502194509 6 87 3.2 3.2 0.00 0.00 0.00 62 1016.6
20260502193510 6 87 3.2 3.2 0.00 0.00 0.00 63 1016.6
20260502193010 6 64 3.2 3.2 0.00 0.00 0.00 63 1016.6
20260502192010 6 104 3.2 3.2 0.00 0.00 0.00 62 1016.9
20260502191510 6 124 3.2 3.2 0.00 0.00 0.00 63 1016.9
20260502190510 6 59 3.2 3.2 0.00 0.00 0.00 62 1016.9
20260502185511 6 52 3.2 3.2 0.00 0.00 0.00 62 1016.9
20260502184511 6 52 3.2 3.2 0.00 0.00 0.00 64 1016.9
20260502184009 6 45 3.2 3.2 0.00 0.00 0.00 64 1016.9
20260502183011 5 72 3.2 3.2 0.00 0.00 0.00 63 1016.9
20260502182011 5 36 3.2 3.2 0.00 0.00 0.00 67 1017.3
20260502180510 5 43 3.2 3.2 0.00 0.00 0.00 68 1017.3